Infomails.de



www.awekas.at



Wetterübersicht - Penzberg,Oberbayern
N 47° 45' 25" O 11° 22' 5 " - 606 m über NN
Wetterstation: VantagePro Plus
CallSign-ID APRS: CW0334
Datum Freitag, 30. Januar 2015
Zeit 15:00 (-1h = UTC-Zeit)
Temperatur Außen
aktuell
0,8 °C
Min.(01:14)
-0,6 °C
(2014:) -5,7 °C (07:44)
Max.(03:17)
3,1 °C
(2014:) 1,6 °C (14:18)
Durchschnitt
0,7 °C
(2014:) -2,1 °C
Durchschnitt gestern: 1,3 °C

Max. gestern: 4,9 °C
Luftfeuchte Außen
aktuell
60 %
Min.(03:16)
59 %
(2014:) 75 % (12:47)
Max.(05:15)
89 %
(2014:) 87 % (23:12)
Durchschnitt
72 %
(2014:) 81 %
Absolute Aussen-Feuchte: 3,07 g/m³
Lüften: Sie können unbesorgt lüften.
Taupunkt aktuell
-6,1 °C
Min.(12:29)
-6,7 °C
Max.(05:31)
-0,2 °C
Durchschnitt
-4,0 °C
Luftdruck
aktuell
978,7 hPa
-1,9 hPa/3h
Tendenz: fallend
Min.(03:15)
971,4 hPa
(2014:) 1002,3 hPa (00:00)
Max.(11:15)
981,2 hPa
(2014:) 1007,0 hPa (09:16)
Durchschnitt
977,0 hPa
(2014:) 1004,5 hPa
-0,6 hPa/1h -1,4 hPa/2h -0,7 hPa/6h +7,2 hPa/12h +2,3 hPa/24h
UV-Index aktuell
0,0 UV-I
Belastung:none
Max.(00:00)
0,0 UV-I
Durchschnitt
0,0 UV-I
Solarstrahlung aktuell
132 W/m²
Max.(12:17)
194 W/m²
Durchschnitt
126 W/m²
mögl. Gesamtleistung:
1188 W/m²
Evapotranspiration Aktuell: 0,000 mm
Tag: 0,254 mm
Wettervorhersage Schneefall
Wettervorhersage VantagePro

Klick für 4-Tages-Vorhersage
Meistens wolkig und kühler. Niederschläge wahrscheinlich. Mögliche Windänderung nach W, NW oder N.
Schneefallgrenze ~ 680 m (berechnet)
Wolkenuntergrenze ~ 1056 m (berechnet)
Horizontsichtweite ~ 2-5 km (berechnet)
Windchill aktuell
0,8 °C
Min.(01:14)
-0,6 °C
Max.(03:17)
3,1 °C
Durchschnitt
0,7 °C
Wind-Böen aktuell
0,0 km/h (0 Bft)
=
Max.(00:00)
- - 0,0 km/h (0 Bft)
(2014:) 0,0 km/h (00:00)
Durchschnitt
0,0 km/h (0 Bft)
(2014:) 0,0 km/h
Windgeschwindigkeit aktuell
0,0 km/h (0 Bft)
=
Max.(00:00)
W-NW 0,0 km/h (0 Bft)
(2014:) 0,0 km/h (00:00)
Durchschnitt
0,0 km/h (0 Bft)
(2014:) 0,0 km/h
Windrichtung 220 ° / SW dominierend
W-SW
Windrichtung Windböen 0 ° / - -
Seegang 0 - glatte See
letzter Frost Erster Frost: - - -
Letzter Frost: 12:11 30.01.2015
Dauer: 1 Stunde, 20 Minuten
  (ab 10:51 30.01.2015)

Erster Frosttag im letzten Jahr: 25.10.2014    Erster Frosttag im vorletzten Jahr 04.11.2013
Letzter Frosttag in diesem Jahr 29.01.2015    Letzter Frosttag im letzten Jahr 18.04.2014
Niederschlag
Klick für Regenradar Bayern
letzte Std. 0,0 mm
letzten 24 Std. 0,3 mm
aktueller Tag 0,3 mm
Gestern 4,8 mm
aktuelle Woche 17,0 mm
aktueller Monat 58,2 mm
letztes Monat 57,9 mm
Januar Vorjahr 36,1 mm
aktuelles Jahr 58,2 mm
Vorjahr 913,9 mm
Regentage / Jahr 12 Tage
Regentage / Vorjahr 180 Tage
durchschnittlich im Januar 42,0 mm
Das bedeutet bisher: +16,2 mm
Letzter Niederschlag 05:13 30.01.2015
Es hat also seit 9 h, 46 min nicht mehr geregnet
Schneehöhe 15,0 cm
Mond
Alter des Mondes10 Tage, 17 Stunden, 14 Minuten
Mondaufgang13:30
Mondzenit21:07
Monduntergang03:54
MondphaseÝ 83%
(0% = Neumond, 100% = Vollmond)
letztes Viertel04:51    12. Februar 2015
erstes Viertel18:15    25. Februar 2015
nächster Vollmond00:10    4. Februar 2015
nächster Neumond00:48    19. Februar 2015
Sonne
Sonnenaufgang gestern07:45    29. Januar 2015
Sonnenaufgang07:44
Sonnenzenit12:27
Sonnenuntergang17:11
Sonnenaufgang morgen07:43    31. Januar 2015
Sonnenuntergang morgen17:12    31. Januar 2015
Tageslänge09:26
Bewölkungsgradsonnig
Sonnenhöchststand24,569 °
Sichtweite2-5 km
Elevation16,261 °
Azimuth-37,731 °
Tagessonnenstunden2:26 Stunden
Wochensonnenstunden16:34 Stunden
Monatssonnenstunden77:55 Stunden
Jahressonnenstunden77:55 Stunden
Die dargestellten Werte repräsentieren die Daten des aktuellen Tages! Der Luftdruck ist auf Meereshöhe bezogen!
Die Mond-/Sonnen-Daten beziehen sich auf die Standortkoordinaten von 47° 45' 25" Nord  -  11° 22' 5" Ost
Zeit --> Mittel Europäische Zeit
Die Wettervorhersage wurde berechnet - ohne Gewähr!


Jahres-Eistage (Tmax < 0°C) 0 Vorjahres-Eistage (Tmax < 0°C) 2
Jahres-Frosttage (Tmin <= 0°C) 21 Vorjahres-Frosttage (Tmin <= 0°C) 77
Kalte Tage des Jahres (Tmax < 10°C) 24 Kalte Tage des Vorjahres (Tmax < 10°C) 91
Jahres-Sommertage (Tmax >= 25°C) 0 Vorjahres-Sommertage (Tmax >= 25°C) 52
Heiße Tage des Jahres (Tmax >= 30°C) 0 Heiße Tage Vorjahr (Tmax >= 30°C) 13

Die Jahresanzahlen gelten immer für den Zeitraum 01.01. bis 31.12. des laufenden Jahres.
Sie sind also nur bedingt vergleichbar, können aber einen Anhalt geben ob das Jahr kühler oder wärmer als das vorherige wird.

Monats-Eistage (Tmax < 0°C) 0 Monats-Eistage Vorjahr (Tmax < 0°C) 0
Monats-Frosttage (Tmin <= 0°C) 21 Monats-Frosttage Vorjahr(Tmin <= 0°C) 17
Kalte Tage des Monats(Tmax < 10°C) 24 Kalte Tage des Monats Vorjahr (Tmax < 10°C) 24
Monats-Sommertage (Tmax >= 25°C) 0 Monats-Sommertage Vorjahr (Tmax >= 25°C) 0
Heiße Tage des Monats (Tmax >= 30°C) 0 Heiße Tage des Monats Vorjahr (Tmax >= 30°C) 0

Mit diesen Zahlen kann man sehr gut den jeweiligen aktuellen Monat und den des Vorjahrs vergleichen.

Durchschnitts-Temperatur des aktuellen Monats 1,69 °C
Standardabweichung des Monats +2,12
Normaltemperatur Jahr 9,2 °C
Durchschnitts-Temperatur des aktuellen Jahres 1,69 °C

          Aussen-      Aussen                                                                          Wind         Sonnen        Sonnen
Zeit     tempera.      Feuchte     Luftdruck      Taupunkt     Windchill     Regen        Wind       richtung     Elevation      azimuth
----------------------------------------------------------------------------------------------------------------------------------------
00:00      0,3 °C         86 %      976,4 hPa     -1,8 °C        0,3 °C      0,0 mm     0,0 km/h         W-NW     -59,529 °   -166,937 °
01:00     -0,4 °C         88 %      974,3 hPa     -2,1 °C       -0,4 °C      0,0 mm     0,0 km/h            N     -59,326 °    164,785 °
02:00      0,6 °C         78 %      972,7 hPa     -2,8 °C        0,6 °C      0,0 mm     0,0 km/h         S-SO     -54,597 °    139,882 °
03:00      2,8 °C         64 %      971,5 hPa     -3,3 °C        2,8 °C      0,0 mm     0,0 km/h            S     -46,885 °    120,762 °
04:00      1,7 °C         74 %      972,5 hPa     -2,4 °C        1,7 °C      0,0 mm     0,0 km/h         W-SW     -37,628 °    106,001 °
05:00      1,1 °C         86 %      974,8 hPa     -1,0 °C        1,1 °C      0,0 mm     0,0 km/h         W-SW     -27,701 °     93,767 °
06:00      1,6 °C         76 %      975,9 hPa     -2,2 °C        1,6 °C      0,0 mm     0,0 km/h         W-SW     -17,630 °     82,771 °
07:00      1,4 °C         74 %      977,0 hPa     -2,7 °C        1,4 °C      0,0 mm     0,0 km/h            W      -7,793 °     72,142 °
08:00      0,4 °C         71 %      978,4 hPa     -4,2 °C        0,4 °C      0,0 mm     0,0 km/h         W-SW       1,464 °     61,238 °
09:00      0,2 °C         69 %      979,4 hPa     -4,8 °C        0,2 °C      0,0 mm     0,0 km/h            W       9,767 °     49,549 °
10:00     -0,3 °C         68 %      980,5 hPa     -5,5 °C       -0,3 °C      0,0 mm     0,0 km/h         W-SW      16,668 °     36,693 °
11:00     -0,2 °C         64 %      981,0 hPa     -6,2 °C       -0,2 °C      0,0 mm     0,0 km/h         W-SW      21,664 °     22,514 °
12:00     -0,2 °C         64 %      980,6 hPa     -6,2 °C       -0,2 °C      0,0 mm     0,0 km/h         W-SW      24,268 °      7,250 °
13:00      0,2 °C         60 %      980,1 hPa     -6,6 °C        0,2 °C      0,0 mm     0,0 km/h         W-SW      24,176 °     -8,424 °
14:00      0,7 °C         60 %      979,3 hPa     -6,2 °C        0,7 °C      0,0 mm     0,0 km/h            W      21,399 °    -23,634 °
15:00      0,8 °C         60 %      978,7 hPa     -6,1 °C        0,8 °C      0,0 mm     0,0 km/h           SW      16,261 °    -37,731 °
----------------------------------------------------------------------------------------------------------------------------------------
Durch.     0,7 °C         72 %      977,0 hPa     -4,0 °C        0,7 °C      0,0 mm     0,0 km/h

Min.      -0,6 °C         59 %      971,4 hPa     -6,7 °C       -0,6 °C      0,0 mm     0,0 km/h
Zeit      01:14         03:16       03:15         12:29          01:14       00:00        00:00

Max.       3,1 °C         89 %      981,2 hPa     -0,2 °C        3,1 °C      0,3 mm     0,0 km/h
Zeit      03:17         05:15       11:15         05:31          03:17       05:13        00:00



Grafische Darstellung (Zum Vergrößern einfach Doppelklick auf die Grafik):

Erzeugt mit V2.97.10 von Werner Krenn


Tabellarische 24-Stundenübersicht: Aktuell


Mondphase:

Letztes Update:
23.04.2006
© by B2-Design

© 1999-2013 Werner Krenn / Mischa Thurnherr - Wetterstation Bedien- und Auswertesoftware - V2.97.10

Powered by Hier klicken!